Location: Jastrz?bniki
(50.3667°N, 20.3833°E)
Time: 11:07:49
(UTC+00:00)

Cosmos 1763 Rocket - Pass Details

Date: 05 August 2024
Orbit: 731 x 776 km, 74.0° (Epoch: 10 September)

Event Time Altitude Azimuth Distance (km) Brightness Sun altitude
Exits shadow 00:11:03 37° 236° (SW) 1,163 4.0 -20.1°
Maximum altitude 00:12:55 59° 298° (WNW) 863 3.7 -20.0°
Drops below altitude 10° 00:17:59 10° 18° (NNE) 2,263 7.2 -19.7°
Sets 00:20:23 0° 23° (NNE) 3,184 8.4 -19.5°
